TimeCDT,TemperatureF,Dew PointF,Humidity,Sea Level PressureIn,VisibilityMPH,Wind Direction,Wind SpeedMPH,Gust SpeedMPH,PrecipitationIn,Events,Conditions,WindDirDegrees,DateUTC
12:51 AM,73.0,46.9,39,30.08,10.0,South,10.4,-,N/A,,Clear,190,2012-09-23 05:51:00
1:51 AM,70.0,46.9,44,30.08,10.0,South,9.2,-,N/A,,Clear,180,2012-09-23 06:51:00
2:51 AM,68.0,48.2,49,30.15,10.0,South,5.8,-,N/A,,Clear,190,2012-09-23 07:51:00
3:51 AM,64.0,48.0,56,30.08,10.0,SW,4.6,-,N/A,,Clear,220,2012-09-23 08:51:00
4:51 AM,63.0,48.0,58,30.09,10.0,SSW,3.5,-,N/A,,Clear,210,2012-09-23 09:51:00
5:51 AM,59.0,48.0,67,30.09,10.0,SSW,3.5,-,N/A,,Clear,200,2012-09-23 10:51:00
6:51 AM,57.9,48.9,72,30.11,10.0,SW,4.6,-,N/A,,Clear,230,2012-09-23 11:51:00
7:51 AM,59.0,48.2,67,30.18,10.0,South,4.6,-,N/A,,Clear,190,2012-09-23 12:51:00
8:51 AM,64.9,52.0,63,30.15,10.0,SSW,3.5,-,N/A,,Clear,200,2012-09-23 13:51:00
9:51 AM,72.0,55.0,55,30.17,10.0,Calm,Calm,-,N/A,,Clear,0,2012-09-23 14:51:00
10:51 AM,78.1,57.0,48,30.17,10.0,Calm,Calm,-,N/A,,Clear,0,2012-09-23 15:51:00
11:51 AM,84.9,57.0,38,30.16,10.0,South,6.9,-,N/A,,Clear,190,2012-09-23 16:51:00
12:51 PM,88.0,54.0,31,30.14,10.0,SSW,4.6,-,N/A,,Clear,210,2012-09-23 17:51:00
1:51 PM,91.0,50.0,24,30.12,10.0,SE,13.8,18.4,N/A,,Clear,130,2012-09-23 18:51:00
2:51 PM,91.9,48.9,23,30.09,10.0,South,10.4,17.3,N/A,,Clear,170,2012-09-23 19:51:00
3:51 PM,93.0,46.0,20,30.06,10.0,SSE,10.4,23.0,N/A,,Clear,150,2012-09-23 20:51:00
4:51 PM,93.0,44.1,18,30.05,10.0,SE,8.1,-,N/A,,Clear,130,2012-09-23 21:51:00
5:51 PM,93.2,42.8,17,30.10,10.0,SSE,6.9,17.3,N/A,,Clear,150,2012-09-23 22:51:00
6:51 PM,91.0,43.0,19,30.04,10.0,SE,13.8,-,N/A,,Clear,140,2012-09-23 23:51:00
7:51 PM,87.1,44.1,22,30.06,10.0,SSE,6.9,-,N/A,,Clear,150,2012-09-24 00:51:00
8:51 PM,82.0,46.9,29,30.08,10.0,South,4.6,-,N/A,,Clear,170,2012-09-24 01:51:00
9:51 PM,78.1,48.0,35,30.10,10.0,SE,4.6,-,N/A,,Clear,140,2012-09-24 02:51:00
10:51 PM,75.0,48.0,38,30.11,10.0,SSE,4.6,-,N/A,,Clear,150,2012-09-24 03:51:00
11:51 PM,75.0,50.0,41,30.10,10.0,South,6.9,-,N/A,,Clear,170,2012-09-24 04:51:00